Weslaco, TX

12:34 PM CST on November 21, 2017 (GMT -0600)
Weslaco

Weather History for KT65 - April, 2014

Change the Weather History Date:

Monday, April 7, 2014

  Actual Average (KMFE) Record (KMFE)
Temperature  
Mean Temperature 68 °F -  
Max Temperature 84 °F 82 °F 99 °F (2006)
Min Temperature 52 °F 63 °F 41 °F (2007)
Cooling Degree Days 2    
Growing Degree Days 18 (Base 50)    
Moisture  
Dew Point 54 °F    
Average Humidity 68    
Maximum Humidity 91    
Minimum Humidity 32    
Precipitation  
Precipitation 0.00 in - - ()
Sea Level Pressure  
Sea Level Pressure 29.86 in    
Wind  
Wind Speed 7 mph (NNE)    
Max Wind Speed 13 mph    
Max Gust Speed 18 mph    
Visibility 9 miles    
Events      
Averages and records for this station are not official NWS values.
T = Trace of Precipitation, MM = Missing Value Source: NWS Daily Summary

Daily Weather History Graph

Daily Weather History Graph

Search for Another Location

Airport or City:

Trip Planner

Search our weather history database for the weather conditions in past years. The results will help you decide how hot, cold, wet, or windy it might be!

Date:

Astronomy

Apr. 07, 2014 Rise Set
Actual Time 7:16 AM CDT 7:51 PM CDT
Civil Twilight 6:53 AM CDT 8:15 PM CDT
Nautical Twilight 6:25 AM CDT 8:42 PM CDT
Astronomical Twilight 5:58 AM CDT 9:10 PM CDT
Moon 1:28 PM CDT (4/7) 2:14 AM CDT (4/7)
Length of Visible Light 13h 21m
Length of Day
12h 35m
First Quarter, 53% of the Moon is Illuminated
Apr 7
First Quarter
Apr 15
Full
Apr 22
Last Quarter
Apr 29
New
May 6
First Quarter

Hourly Weather History & Observations

Time (CDT) Temp. Heat Index Dew Point Humidity Pressure Visibility Wind Dir Wind Speed Gust Speed Precip Events Conditions
12:15 AM 64.4 °F - 57.0 °F 77% 29.80 in 10.0 mi North 9.2 mph - N/A   Mostly Cloudy
12:35 AM 63.1 °F - 56.3 °F 78% 29.80 in 10.0 mi North 8.1 mph - N/A   Scattered Clouds
12:55 AM 61.7 °F - 55.9 °F 81% 29.80 in 10.0 mi North 3.5 mph - N/A   Clear
1:15 AM 60.8 °F - 55.8 °F 83% 29.79 in 10.0 mi North 5.8 mph - N/A   Clear
1:35 AM 60.3 °F - 55.4 °F 84% 29.79 in 10.0 mi North 4.6 mph - N/A   Clear
1:55 AM 59.5 °F - 55.0 °F 85% 29.79 in 10.0 mi North 3.5 mph - N/A   Clear
2:15 AM 59.0 °F - 54.7 °F 86% 29.80 in 10.0 mi North 3.5 mph - N/A   Clear
2:35 AM 58.6 °F - 54.7 °F 87% 29.81 in 10.0 mi North 6.9 mph - N/A   Clear
2:55 AM 58.3 °F - 54.3 °F 87% 29.81 in 10.0 mi North 8.1 mph - N/A   Clear
3:15 AM 58.1 °F - 54.0 °F 86% 29.81 in 10.0 mi North 8.1 mph - N/A   Clear
3:35 AM 57.6 °F - 53.6 °F 87% 29.82 in 10.0 mi North 10.4 mph - N/A   Clear
3:55 AM 57.2 °F - 52.7 °F 85% 29.81 in 10.0 mi North 10.4 mph - N/A   Clear
4:15 AM 56.7 °F - 52.2 °F 85% 29.81 in 10.0 mi North 10.4 mph 16.1 mph N/A   Clear
4:35 AM 56.3 °F - 52.0 °F 85% 29.81 in 10.0 mi North 8.1 mph - N/A   Clear
4:55 AM 55.6 °F - 51.8 °F 87% 29.81 in 10.0 mi North 6.9 mph - N/A   Clear
5:15 AM 55.4 °F - 51.4 °F 87% 29.81 in 7.0 mi North 6.9 mph - N/A   Clear
5:35 AM 55.0 °F - 50.9 °F 86% 29.82 in 10.0 mi North 4.6 mph - N/A   Clear
5:55 AM 54.5 °F - 50.9 °F 88% 29.82 in 7.0 mi North 4.6 mph - N/A   Clear
6:15 AM 54.1 °F - 50.9 °F 89% 29.82 in 7.0 mi North 3.5 mph - N/A   Clear
6:35 AM 53.6 °F - 50.4 °F 89% 29.83 in 7.0 mi Calm Calm - N/A   Clear
7:15 AM 52.7 °F - 50.2 °F 91% 29.84 in 7.0 mi NW 4.6 mph - N/A   Overcast
7:35 AM 52.3 °F - 49.8 °F 91% 29.85 in 7.0 mi NNW 4.6 mph - N/A   Scattered Clouds
7:55 AM 52.7 °F - 50.0 °F 91% 29.85 in 7.0 mi NNW 5.8 mph - N/A   Clear
8:15 AM 53.8 °F - 51.1 °F 91% 29.86 in 7.0 mi NW 6.9 mph - N/A   Clear
8:35 AM 55.4 °F - 51.8 °F 88% 29.88 in 10.0 mi NW 6.9 mph - N/A   Clear
8:55 AM 57.2 °F - 52.3 °F 84% 29.88 in 10.0 mi NW 6.9 mph - N/A   Clear
9:15 AM 58.3 °F - 52.2 °F 80% 29.89 in 10.0 mi NNW 6.9 mph - N/A   Scattered Clouds
9:35 AM 59.9 °F - 52.0 °F 75% 29.90 in 7.0 mi NNW 5.8 mph - N/A   Overcast
9:55 AM 61.2 °F - 52.3 °F 73% 29.90 in 7.0 mi NNW 6.9 mph - N/A   Scattered Clouds
10:15 AM 62.8 °F - 52.3 °F 69% 29.90 in 7.0 mi North 5.8 mph - N/A   Scattered Clouds
10:55 AM 66.4 °F - 53.6 °F 63% 29.90 in 10.0 mi WNW 5.8 mph - N/A   Clear
11:15 AM 67.3 °F - 53.6 °F 61% 29.91 in 10.0 mi North 3.5 mph - N/A   Clear
11:35 AM 70.2 °F - 54.1 °F 57% 29.90 in 10.0 mi North 4.6 mph - N/A   Clear
11:55 AM 72.0 °F - 54.7 °F 54% 29.90 in 10.0 mi North 3.5 mph - N/A   Clear
12:15 PM 72.3 °F - 53.8 °F 52% 29.89 in 10.0 mi ENE 4.6 mph - N/A   Clear
12:35 PM 74.1 °F - 54.3 °F 50% 29.89 in 10.0 mi Calm Calm - N/A   Clear
12:55 PM 75.9 °F - 53.2 °F 45% 29.89 in 10.0 mi Calm Calm - N/A   Clear
1:15 PM 76.8 °F - 53.2 °F 44% 29.87 in 10.0 mi Calm Calm - N/A   Clear
1:35 PM 78.3 °F - 52.2 °F 40% 29.87 in 7.0 mi ESE 3.5 mph - N/A   Clear
1:55 PM 79.3 °F - 52.5 °F 39% 29.86 in 10.0 mi ENE 3.5 mph - N/A   Clear
2:15 PM 80.6 °F - 50.5 °F 35% 29.85 in 7.0 mi NE 3.5 mph - N/A   Clear
2:35 PM 81.5 °F - 51.4 °F 35% 29.84 in 5.0 mi ENE 4.6 mph - N/A   Haze
2:55 PM 82.9 °F - 51.6 °F 34% 29.83 in 7.0 mi NNE 5.8 mph - N/A   Clear
3:15 PM 82.9 °F - 51.4 °F 33% 29.82 in 7.0 mi SE 3.5 mph - N/A   Clear
3:35 PM 83.7 °F - 51.3 °F 32% 29.81 in 10.0 mi East 9.2 mph - N/A   Clear
3:55 PM 83.7 °F - 51.4 °F 33% 29.80 in 10.0 mi East 6.9 mph - N/A   Clear
4:15 PM 83.1 °F 82.1 °F 54.1 °F 37% 29.80 in 10.0 mi ESE 9.2 mph - N/A   Clear
4:35 PM 81.9 °F 81.2 °F 54.5 °F 39% 29.80 in 10.0 mi East 10.4 mph 17.3 mph N/A   Clear
4:55 PM 81.9 °F 81.3 °F 55.0 °F 40% 29.80 in 7.0 mi East 12.7 mph 16.1 mph N/A   Clear
5:15 PM 79.9 °F - 54.9 °F 42% 29.80 in 7.0 mi East 10.4 mph 17.3 mph N/A   Clear
5:35 PM 79.0 °F - 55.2 °F 44% 29.81 in 10.0 mi East 10.4 mph 18.4 mph N/A   Clear
5:55 PM 78.6 °F - 55.2 °F 44% 29.81 in 10.0 mi East 12.7 mph - N/A   Clear
6:15 PM 76.8 °F - 55.4 °F 47% 29.81 in 10.0 mi East 10.4 mph 17.3 mph N/A   Clear
6:35 PM 75.7 °F - 55.6 °F 49% 29.82 in 10.0 mi East 11.5 mph 16.1 mph N/A   Clear
6:55 PM 75.0 °F - 55.9 °F 51% 29.82 in 10.0 mi East 10.4 mph - N/A   Clear
7:15 PM 73.6 °F - 56.3 °F 55% 29.83 in 10.0 mi ESE 11.5 mph - N/A   Clear
7:35 PM 71.8 °F - 56.3 °F 58% 29.84 in 10.0 mi ESE 10.4 mph 16.1 mph N/A   Clear
7:55 PM 70.0 °F - 57.2 °F 64% 29.85 in 10.0 mi East 9.2 mph - N/A   Clear
8:15 PM 68.7 °F - 57.2 °F 67% 29.87 in 10.0 mi East 8.1 mph - N/A   Clear
8:35 PM 67.5 °F - 57.4 °F 70% 29.90 in 10.0 mi East 5.8 mph - N/A   Clear
9:15 PM 65.7 °F - 57.4 °F 75% 29.93 in 10.0 mi East 5.8 mph - N/A   Clear
9:35 PM 64.8 °F - 57.7 °F 78% 29.95 in 10.0 mi NE 8.1 mph - N/A   Clear
9:55 PM 64.4 °F - 57.7 °F 79% 29.98 in 10.0 mi NE 8.1 mph - N/A   Clear
10:15 PM 63.5 °F - 57.6 °F 81% 30.00 in 10.0 mi NE 5.8 mph - N/A   Clear
10:35 PM 63.1 °F - 57.6 °F 82% 30.03 in 10.0 mi NNE 9.2 mph - N/A   Clear
10:55 PM 63.5 °F - 57.7 °F 81% 30.05 in 10.0 mi North 10.4 mph - N/A   Scattered Clouds
11:15 PM 63.5 °F - 57.6 °F 81% 30.06 in 10.0 mi North 4.6 mph - N/A   Scattered Clouds
11:35 PM 63.1 °F - 58.5 °F 85% 30.06 in 10.0 mi Calm Calm - N/A   Drizzle
11:55 PM 63.5 °F - 58.6 °F 84% 30.06 in 10.0 mi NNE 4.6 mph - N/A   Light Drizzle